Tracking 19146 objects as of 24-Apr-2018
HD Live streaming from Space Station
objects crossing your sky now

FENGYUN 1C DEB

Track FENGYUN 1C DEB now!
10-day predictions


NORAD ID: 31302
Int'l Code: 1999-025BPL
Perigee: 834.6 km
Apogee: 884.7 km
Inclination: 99.4 °
Period: 102.0 minutes
Semi major axis: 7230 km
RCS: 0.011 m2 (small)
Launch date: May 10, 1999
Source: People's Republic of China (PRC)
Launch site: Taiyaun Space Center, China (TSC)

Note: This is SATELLITE DEBRIS
aabbcc
Your satellite tracking list
Your tracking list is empty




NASA's NSSDC Master Catalog

Two Line Element Set (TLE):
1 31302U 99025BPL 18113.52358458 +.00000695 +00000-0 +40395-3 0  9992
2 31302 099.4296 325.0638 0034638 318.4364 071.5851 14.12010984568624
Source of the keplerian elements: AFSPC